Regional Weather Roundup
Issued by NWS Midland/Odessa, TX

Home | Current Version | Previous Version | Text Only | Print | Product List | Glossary On
Versions: 1 2 3 4 5 6 7 8 9 10 11 12 13 14 15 16 17 18 19 20 21 22 23 24 25 26 27 28 29 30 31 32 33 34 35 36 37 38 39 40 41 42 43 44 45 46 47 48 49 50
000
ASUS44 KMAF 310501
RWRMAF
MIDLAND AREA WEATHER ROUNDUP
NATIONAL WEATHER SERVICE MIDLAND TX
1200 AM CDT MON AUG 31 2015

...IN SOUTHWEST TEXAS AND SOUTHEAST NEW MEXICO...

CITY           SKY/WX    TMP DP  RH WIND       PRES   REMARKS
ALPINE         CLEAR     72  50  46 S10G17    30.18R
ANDREWS        FAIR      73  57  57 S8        30.07R
ARTESIA        CLEAR     70  54  56 S8        30.06R
BIG SPRING     CLEAR     71  56  58 SE9       30.05S
CARLSBAD         N/A     72  47  40 S6        30.03S
DRYDEN           N/A     76  61  59 VRB6      30.01S
FORT STOCKTON  CLEAR     76  56  49 S15       30.04S
GUAD PASS      CLEAR     71  45  39 NE10      30.20S
HOBBS            N/A     70  55  60 CALM      30.09S
MARFA          CLEAR     66  48  52 CALM      30.16S
MIDLAND AIRPK  CLEAR     76  57  51 S10       30.05R
MIDLAND INTL   CLEAR     75  58  55 S12       30.05R
ODESSA         CLEAR     76  57  51 S13       30.06R
PECOS          CLEAR     79  52  38 SE13G22   30.00S
PRESIDIO       NOT AVBL
SEMINOLE       CLEAR     69  54  58 S5        30.08S
SNYDER         CLEAR     75  58  56 S7        30.03S
WINK           CLEAR     77  59  53 SE10      30.02R
$$
...OTHER STATIONS IN TEXAS...

CITY           SKY/WX    TMP DP  RH WIND       PRES   REMARKS
ABILENE        CLEAR     77  59  53 S10       30.00S
AMARILLO       CLEAR     72  52  49 S12       30.05S
AUSTIN         PTCLDY    71  67  87 CALM      29.98S
BROWNSVILLE    PTCLDY    77  74  90 SE5       29.95F
CORPUS CHRISTI MOCLDY    81  72  74 SE7       29.95S
DALLAS FTW     PTCLDY    81  63  54 S10       29.94S
DEL RIO        MOCLDY    79  63  57 E8        29.94F
EL PASO        CLEAR     80  47  31 SE7       30.04S
HOUSTON INT    PTCLDY    78  69  73 S3        29.99S
LUBBOCK        CLEAR     71  56  58 SW7       30.04S
SAN ANGELO     CLEAR     71  63  75 CALM      30.02S
SAN ANTONIO    PTCLDY    80  66  62 SE10      29.98F
WACO           CLEAR     73  67  81 SW3       29.97S
WICHITA FALLS  NOT AVBL
$$
...OTHER LOCATIONS IN NEW MEXICO...

CITY           SKY/WX    TMP DP  RH WIND       PRES   REMARKS
ALAMAGORDO     CLEAR     73  43  33 S10       30.07S
ALBUQUERQUE    PTCLDY    78  45  30 E7        30.12S
CANNON AFB     CLEAR     68  49  50 S8        30.09S
CLOVIS         CLEAR     64  48  55 SW7       30.11R
HOLLOMAN AFB   CLEAR     78  45  31 N12       30.04S
ROSWELL        CLEAR     72  53  51 S9        30.05R
RUIDOSO        CLEAR     66  46  48 MISG      30.29S
SANTA FE       PTCLDY    69  43  38 SE7       30.17S
TRUTH OR CONSE CLEAR     76  49  38 S6        30.10R
TUCUMCARI      CLEAR     67  51  56 SW6       30.04R
$$




USA.gov is the U.S. government's official web portal to all federal, state and local government web resources and services.